Meteo pe oră la Czyzew

Astăzi, 22 Aprilie, Joi

Timp Temperatura Precipitaţii Vânt Presiune Umiditate
00:00 +6°C° 0.1 mm 4 m/s 747 mmHg 86%
01:00 +5°C° 0 mm 4 m/s 748 mmHg 90%
02:00 +4°C° 0.5 mm 4 m/s 748 mmHg 90%
03:00 +4°C° 0.5 mm 4 m/s 748 mmHg 90%
04:00 +4°C° 0.5 mm 3 m/s 748 mmHg 90%
05:00 +4°C° 0 mm 4 m/s 748 mmHg 86%
06:00 +3°C° 0 mm 5 m/s 749 mmHg 82%
07:00 +3°C° 0 mm 6 m/s 749 mmHg 78%
08:00 +4°C° 0 mm 6 m/s 749 mmHg 72%
09:00 +4°C° 0 mm 6 m/s 750 mmHg 66%
10:00 +5°C° 0 mm 7 m/s 750 mmHg 60%
11:00 +5°C° 0.1 mm 7 m/s 750 mmHg 60%
12:00 +5°C° 0.1 mm 7 m/s 750 mmHg 60%
13:00 +5°C° 0.1 mm 8 m/s 750 mmHg 59%
14:00 +5°C° 0.2 mm 7 m/s 750 mmHg 62%
15:00 +5°C° 0.2 mm 7 m/s 750 mmHg 64%
16:00 +5°C° 0.2 mm 7 m/s 750 mmHg 66%
17:00 +4°C° 0.1 mm 6 m/s 750 mmHg 65%
18:00 +5°C° 0.1 mm 5 m/s 750 mmHg 63%
19:00 +3°C° 0.1 mm 5 m/s 751 mmHg 62%
20:00 +3°C° 0 mm 4 m/s 751 mmHg 64%
21:00 +1°C° 0 mm 4 m/s 751 mmHg 67%
22:00 0°C° 0 mm 4 m/s 751 mmHg 69%
23:00 0°C° 0 mm 4 m/s 751 mmHg 71%

Mâine, 23 Aprilie, Vineri

Timp Temperatura Precipitaţii Vânt Presiune Umiditate
00:00 0°C° 0 mm 5 m/s 751 mmHg 72%
01:00 0°C° 0 mm 5 m/s 752 mmHg 74%
02:00 -1°C° 0 mm 5 m/s 752 mmHg 76%
03:00 -1°C° 0 mm 4 m/s 752 mmHg 77%
04:00 -2°C° 0 mm 4 m/s 752 mmHg 79%
05:00 0°C° 0 mm 5 m/s 752 mmHg 75%
06:00 +1°C° 0 mm 5 m/s 753 mmHg 71%
07:00 +2°C° 0 mm 6 m/s 753 mmHg 67%
08:00 +3°C° 0.1 mm 6 m/s 753 mmHg 63%
09:00 +4°C° 0.1 mm 6 m/s 753 mmHg 58%
10:00 +7°C° 0.1 mm 6 m/s 753 mmHg 54%
11:00 +7°C° 0.4 mm 6 m/s 753 mmHg 53%
12:00 +6°C° 0.4 mm 7 m/s 753 mmHg 53%
13:00 +8°C° 0.4 mm 7 m/s 753 mmHg 53%
14:00 +7°C° 0.4 mm 6 m/s 754 mmHg 61%
15:00 +5°C° 0.4 mm 6 m/s 754 mmHg 68%
16:00 +4°C° 0.4 mm 6 m/s 754 mmHg 75%
17:00 +3°C° 0.3 mm 5 m/s 754 mmHg 76%
18:00 +3°C° 0.3 mm 4 m/s 754 mmHg 77%
19:00 +2°C° 0.3 mm 3 m/s 755 mmHg 78%
20:00 +2°C° 0 mm 3 m/s 755 mmHg 76%
21:00 +1°C° 0 mm 3 m/s 755 mmHg 75%
22:00 0°C° 0 mm 3 m/s 755 mmHg 73%
23:00 -1°C° 0 mm 3 m/s 755 mmHg 75%

Poimâine, 24 Aprilie, Sâmbătă

Timp Temperatura Precipitaţii Vânt Presiune Umiditate
00:00 -1°C° 0 mm 3 m/s 755 mmHg 76%
01:00 -1°C° 0 mm 3 m/s 755 mmHg 77%
02:00 -2°C° 0 mm 3 m/s 756 mmHg 80%
03:00 -2°C° 0 mm 3 m/s 756 mmHg 82%
04:00 -2°C° 0 mm 3 m/s 756 mmHg 84%
05:00 -1°C° 0 mm 3 m/s 756 mmHg 78%
06:00 0°C° 0 mm 4 m/s 756 mmHg 72%
07:00 +1°C° 0 mm 4 m/s 756 mmHg 66%
08:00 +4°C° 0 mm 4 m/s 756 mmHg 58%
09:00 +6°C° 0 mm 5 m/s 756 mmHg 51%
10:00 +7°C° 0 mm 5 m/s 756 mmHg 43%
11:00 +8°C° 0 mm 5 m/s 755 mmHg 42%
12:00 +8°C° 0 mm 5 m/s 755 mmHg 40%
13:00 +9°C° 0 mm 5 m/s 755 mmHg 39%
14:00 +9°C° 0 mm 5 m/s 754 mmHg 41%
15:00 +9°C° 0 mm 5 m/s 754 mmHg 43%
16:00 +8°C° 0 mm 5 m/s 754 mmHg 45%
17:00 +6°C° 0.1 mm 5 m/s 754 mmHg 58%
18:00 +4°C° 0.1 mm 4 m/s 754 mmHg 71%
19:00 +1°C° 0.1 mm 4 m/s 755 mmHg 84%
20:00 +2°C° 0 mm 3 m/s 755 mmHg 84%
21:00 +2°C° 0 mm 2 m/s 755 mmHg 83%
22:00 +2°C° 0 mm 1 m/s 755 mmHg 82%
23:00 +2°C° 0 mm 1 m/s 755 mmHg 81%

25 Aprilie, Duminică

Timp Temperatura Precipitaţii Vânt Presiune Umiditate
00:00 +2°C° 0 mm 1 m/s 755 mmHg 80%
01:00 +2°C° 0 mm 1 m/s 755 mmHg 78%
02:00 +1°C° 0 mm 1 m/s 755 mmHg 80%
03:00 -1°C° 0 mm 2 m/s 755 mmHg 82%
04:00 -2°C° 0 mm 2 m/s 755 mmHg 84%
05:00 0°C° 0 mm 3 m/s 755 mmHg 78%
06:00 +1°C° 0 mm 3 m/s 755 mmHg 72%
07:00 +3°C° 0 mm 4 m/s 755 mmHg 66%
08:00 +3°C° 0 mm 5 m/s 754 mmHg 58%
09:00 +5°C° 0 mm 5 m/s 754 mmHg 50%
10:00 +5°C° 0 mm 6 m/s 754 mmHg 41%
11:00 +7°C° 0 mm 6 m/s 754 mmHg 41%
12:00 +7°C° 0 mm 6 m/s 754 mmHg 40%
13:00 +6°C° 0 mm 7 m/s 754 mmHg 40%
14:00 +6°C° 0 mm 7 m/s 754 mmHg 42%
15:00 +6°C° 0 mm 7 m/s 754 mmHg 44%
16:00 +6°C° 0 mm 7 m/s 753 mmHg 46%
17:00 +5°C° 0.1 mm 5 m/s 754 mmHg 51%
18:00 +4°C° 0.1 mm 4 m/s 754 mmHg 57%
19:00 +2°C° 0.1 mm 3 m/s 754 mmHg 63%
20:00 +2°C° 0 mm 2 m/s 754 mmHg 66%
21:00 +1°C° 0 mm 2 m/s 754 mmHg 69%
22:00 +1°C° 0 mm 1 m/s 754 mmHg 71%
23:00 -1°C° 0 mm 2 m/s 754 mmHg 71%

26 Aprilie, Luni

Timp Temperatura Precipitaţii Vânt Presiune Umiditate
00:00 -2°C° 0 mm 2 m/s 754 mmHg 71%
01:00 -2°C° 0 mm 2 m/s 754 mmHg 71%
02:00 -2°C° 0 mm 3 m/s 754 mmHg 70%
03:00 -4°C° 0 mm 3 m/s 753 mmHg 70%
04:00 -4°C° 0 mm 3 m/s 753 mmHg 70%
05:00 -1°C° 0 mm 3 m/s 753 mmHg 66%
06:00 0°C° 0 mm 4 m/s 753 mmHg 63%
07:00 +2°C° 0 mm 5 m/s 753 mmHg 60%
08:00 +3°C° 0 mm 5 m/s 753 mmHg 54%
09:00 +6°C° 0 mm 5 m/s 753 mmHg 48%
10:00 +7°C° 0 mm 5 m/s 752 mmHg 42%
11:00 +8°C° 0 mm 5 m/s 752 mmHg 40%
12:00 +8°C° 0 mm 5 m/s 752 mmHg 38%
13:00 +9°C° 0 mm 5 m/s 751 mmHg 37%
14:00 +9°C° 0 mm 5 m/s 751 mmHg 38%
15:00 +10°C° 0 mm 4 m/s 751 mmHg 40%
16:00 +10°C° 0 mm 4 m/s 751 mmHg 41%
17:00 +7°C° 0 mm 4 m/s 750 mmHg 48%
18:00 +7°C° 0 mm 3 m/s 750 mmHg 55%
19:00 +5°C° 0 mm 2 m/s 750 mmHg 62%
20:00 +4°C° 0 mm 2 m/s 751 mmHg 66%
21:00 +3°C° 0 mm 2 m/s 751 mmHg 69%
22:00 +2°C° 0 mm 2 m/s 751 mmHg 73%
23:00 +2°C° 0 mm 2 m/s 751 mmHg 76%

27 Aprilie, Marţi

Timp Temperatura Precipitaţii Vânt Presiune Umiditate
00:00 +1°C° 0 mm 2 m/s 751 mmHg 79%
01:00 +1°C° 0 mm 1 m/s 751 mmHg 82%
02:00 +1°C° 0 mm 1 m/s 751 mmHg 83%
03:00 +1°C° 0 mm 1 m/s 750 mmHg 84%
04:00 0°C° 0 mm 1 m/s 750 mmHg 85%
05:00 +1°C° 0 mm 2 m/s 750 mmHg 78%
06:00 +3°C° 0 mm 2 m/s 750 mmHg 71%
07:00 +4°C° 0 mm 2 m/s 750 mmHg 64%
08:00 +6°C° 0 mm 2 m/s 750 mmHg 60%
09:00 +7°C° 0 mm 2 m/s 750 mmHg 55%
10:00 +9°C° 0 mm 2 m/s 750 mmHg 51%
11:00 +10°C° 0 mm 2 m/s 749 mmHg 49%
12:00 +10°C° 0 mm 2 m/s 749 mmHg 47%
13:00 +12°C° 0 mm 2 m/s 749 mmHg 45%
14:00 +12°C° 0 mm 2 m/s 748 mmHg 46%
15:00 +12°C° 0 mm 2 m/s 748 mmHg 47%
16:00 +11°C° 0 mm 3 m/s 748 mmHg 48%
17:00 +9°C° 0 mm 3 m/s 748 mmHg 56%
18:00 +7°C° 0 mm 4 m/s 747 mmHg 64%
19:00 +5°C° 0 mm 4 m/s 747 mmHg 72%
20:00 +5°C° 0 mm 4 m/s 747 mmHg 73%
21:00 +3°C° 0 mm 5 m/s 747 mmHg 74%
22:00 +3°C° 0 mm 5 m/s 747 mmHg 74%
23:00 +2°C° 0 mm 5 m/s 747 mmHg 75%
Arată mai mult

Formular de consimțământ

Meteoprog și furnizorii noștri de servicii pot stoca și accesa date personale, precum cookies, identificatori de dispozitiv sau alte tehnologii similare pe dispozitivul dumneavoastră și procesa astfel de date pentru a personaliza conținutul și reclamele, dar și pentru a oferi caracteristici de social media și pentru a analiza traficul.

  • Stocarea și/sau accesarea informațiilor pe dispozitivul dumneavoastră

    Cookies, identificatori de dispozitiv sau alte informații pot fi stocate sau accesate pe dispozitiv în scopurile indicate mai sus.

  • Reclame și conținut personalizat, evaluarea reclamelor și a conținutului, informații despre audiențe și dezvoltarea produselor

    Reclamele și conținutul pot fi personalizate pe baza unui profil. Pot fi adăugate date suplimentare pentru a personaliza mai bine reclamele și conținutul. Performanța reclamelor și conținutului poate fi măsurată. Pot fi obținute informații despre utilizatorii care au văzut reclamele și conținutul. Aceste date pot fi utilizate pentru a dezvolta sau îmbunătăți experiența utilizatorilor, sistemele și software-ul.

Dând clic pe ‘Sunt de acord’, permiteți utilizarea cookie-urilor menționate, a identificatorilor de dispozitiv, balizelor web sau altor tehnologii similare. Setările pot fi modificate din browser-ul dispozitivului dumneavoastră.

În anumite scopuri, interesele legitime pot prima asupra consimțământului. Puteți citi mai multe informații în acest sens în Politica privind Confidențialitatea Datelor și Cookie.